Location: Góry Miechowskie
(50.3599°N, 20.1803°E)
Time: 20:38:21
(UTC+00:00)

Cosmos 2219 - Pass Details

Date: 25 September 2024
Orbit: 831 x 860 km, 71.1° (Epoch: 13 October)

Event Time Altitude Azimuth Distance (km) Brightness Sun altitude
Exits shadow 02:34:28 12° 190° (S) 2,336 5.2 -18.9°
Maximum altitude 02:39:40 60° 113° (ESE) 977 3.7 -18.1°
Drops below altitude 10° 02:45:18 10° 35° (NE) 2,502 6.5 -17.3°
Sets 02:47:48 0° 32° (NNE) 3,445 7.2 -16.9°
